Погода в Малоярославеце

Погода в Малоярославеце : погода сейчас, прогноз погоды и архив. Всё, что Вы хотите узнать о погоде в Малоярославеце!

Хотите узнать прогноз погоды в Малоярославеце? Тогда Вам сюда: Погода в Малоярославеце

Поиск расширенной информации на нашем сайте:

Другие новости

Новости СМИ2

Главная страница сайта

Новости сайта

03.07.2017

Напоминаем, что на нашем специализированном сайте Метеоцентр.Азия вы можете получить высокодетализированные автоматические прогнозы погоды по пунктам России, СНГ и мира в авиационном формате (включающие направление и скорость ветра, видимость, явления погоды, количество и форму облачности, нижнюю и верхнюю границу облачности).

Рекомендуем: http://www.usadba22.ru/ купить дачный участок в рассрочку.

Погода в Малоярославеце - сегодня

Время (UTC), дата Ветер
(°,м/с) 
Видим.   Явления Облачность Т
(°С)
Тd
(°С)
f(%) Тe
(°С)
Pmin
(гПа)
dP
(гПа)
Po
(мм)
O2
(г/м3)
Тmin Tmax R s Состояние
почвы
03 15.08.17 040 (СВ) 20000 м  {ливн. осадки}  8/0 средняя 
[Ac trans]
+16.6 +15.2 91 +26  1023  1.6  750  282  +16    0.8     
06 15.08.17 050 (СВ) 20000 м  {ливн. осадки}  ясно 
+18.8 +14.9 78 +28  1023.6  0.9  750  280  +16    0.8     
09 15.08.17 050 (СВ) 20000 м    5/5 300 м 
[Cu Sc]
+21.8 +12.3 55 +26  1024.4  0.9  751  278           
12 15.08.17 040 (СВ) 20000 м    3/3 300 м 
[Cu Sc]
+23.6 +12 48 +27  1024.5  0.3  751  276           
15 15.08.17 010 (С) 20000 м    3/1 300 м средняя 
[Cu hum|Ac trans]
+22.8 +10 44 +24  1024.6  751  278           
21 15.08.17 010 (С) н/о    ясно 
+15.4 +12.3 82 +20  1026.9  0.8  752  285           
00 16.08.17 020 (С) н/о    ясно 
+14.6 +12.6 88 +21  1027.8  0.8  753  286           
03 16.08.17 030 (СВ) 20000 м    ясно 
+11.8 +10.6 92 +15  1028.3  0.3  753  289  +11         
06 16.08.17 040 (СВ) 20000 м    ясно 
+16.4 +11.7 74 +21  1028.6  0.7  754  284  +11         
09 16.08.17 080 (В) 20000 м    6/6 600 м 
[Cu Sc]
+21.4 +11.8 54 +25  1027.9  -0.3  754  279           
12 16.08.17 040 (СВ) 20000 м    6/6 600 м 
[Cu Sc]
+23.8 +10 42 +25  1027.2  -0.5  753  277           
15 16.08.17 090 (В) 20000 м    3/3 600 м 
[Sc]
+22 +13.3 58 +28  1026.5  -0.8  753  278           
18 16.08.17 тихо ()   н/о    ясно 
+17.2 +14.8 86 +25  1026.8  -0.1  753  282    +24.3       
21 16.08.17 080 (В) н/о    4/4 300 м 
[Sc]
+16.2 +15 93 +27  1026.9  753  283           
00 17.08.17 090 (В) н/о    3/3 300 м 
[Sc]
+15 +13.9 93 +23  1027  753  285           
03 17.08.17 040 (СВ) 20000 м    8/8 480 м 
[Sc]
+13.2 +12.6 96 +19  1027.3  -0.1  753  287  +13.2         
06 17.08.17 070 (В) 20000 м    5/4 600 м верхняя 
[Cu Sc|Ci fib]
+18.8 +15.9 83 +30  1026.4  -0.4  752  280  +13.2         
09 17.08.17 060 (СВ) 20000 м    4/4 600 м верхняя 
[Cu hum|Ci fib]
+23.9 +13.6 52 +30  1025.9  -0.1  752  276           
12 17.08.17 120 (ЮВ) 20000 м    5/5 300 м 
[Cu Sc]
+25.4 +15.1 53 +34  1024.8  -0.9  752  274           
15 17.08.17 110 (В) 20000 м    3/1 600 м верхняя 
[Cu med, cong|Ci fib]
+24.9 +16.1 58 +35  1024  -0.8  751  274           
18 17.08.17 100 (В) н/о    3/0 верхняя 
[Ci sp]
+20.5 +17 80 +33  1024.3  751  278    +26       
21 17.08.17 тихо ()   н/о    3/3 600 м 
[Sc]
+18.6 +16.4 87 +30  1024.7  0.3  751  280           
00 18.08.17 080 (В) н/о    3/3 600 м 
[Sc]
+16.3 +14.6 90 +26  1025.2  0.2  751  283           
03 18.08.17 090 (В) 20000 м    6/0 средняя, верхняя 
[Ac trans|Ci sp]
+13.6 +12.2 91 +19  1025.4  751  286  +13.6         
06 18.08.17 130 (ЮВ) 20000 м    3/0 средняя, верхняя 
[Ac trans|Ci fib]
+21.4 +16.1 72 +32  1024.6  -0.2  751  277  +13.6         
Время (UTC), дата Ветер
(°,м/с) 
Видим.   Явления Облачность Т
(°С)
Тd
(°С)
f(%) Тe
(°С)
Pmin
(гПа)
dP
(гПа)
Po
(мм)
O2
(г/м3)
Тmin Tmax R s Состояние
почвы

Для получения пояснительной информации подведите курсор к названию столбца.

ПОГОДА в Малоярославеце - архив

Всё, что Вы хотите узнать о погоде в Малоярославеце - удобно и подробно!

Выберите нужную дату (начиная с 1 января 2015* года) и нажмите кнопку "Найти".
Будут отображены архивные сводки погоды по пункту Малоярославец, начиная с указанной даты.


Отображать данные в формате CSV (для использования в таблицах Excel)


Внимание! Наш архив погоды предназначен исключительно для личного некоммерческого использования в познавательных целях. Если Вам необходимы официальные справки о состоянии погоды (для производственных, юридических, коммерческих и т.п. целей), обращайтесь в органы Росгидромета.

*Примечание: данная дата относится к архиву по метеостанциям СССР (Россия, СНГ, Балтия).
Архив по метеостанциям Зарубежной Европы и Азии (кроме Китая) хранится 10 дней, по другим регионам земного шара (Китай, Африка, Америка, Австралия, Океания) - 1 день.

Малоярославец - район местоположения метеостанции


Название, широта, долгота, высота метеостанции:
Малоярославец 55°ш. 36.5°д. 197 м над ур. моря [Российская Федерация]

Дополнительная информация

В oтличие oт бoльшинства пoгoдных сайтoв мы публикуем пoдрoбную метеoинфoрмацию в детальнoм прoфессиoнальнoм фoрмате.

Характеристики температуры и влажнoсти вoздуха измеряются на высoте 2 м в тени вдали oт зданий и деревьев.
Скoрoсть ветра измеряется на высoте 10 м (на урoвне рoста челoвека скoрoсть ветра ниже в 1.5-2 раза). Если метеoстанция нахoдится в гoрoде или в лесу, тo скoрoсть ветра занижена на 2-4 м/с пo сравнению с oткрытым местoм. Скoрoсть ветра над акватoриями крупных рек и oзёр, а также на вершинах хoлмoв на 2-5 м/с выше, чем в oбычных услoвиях.
Атмoсфернoе давление в разных тoчках местнoсти мoжет значительнo oтличаться oт давления на метеoстанции, в зависимoсти oт услoвий рельефа (при пoдъёме на 10 м давление пoнижается примернo на 1 мм рт.ст.).